Time,TemperatureF,DewpointF,PressureIn,WindDirection,WindDirectionDegrees,WindSpeedMPH,WindSpeedGustMPH,Humidity,HourlyPrecipIn,Conditions,Clouds,dailyrainin,SoftwareType,DateUTC
2013-01-22 00:00:00,24.0,21.5,29.73,NNE,24,0.0,0.0,90,0.00,,,0.00,WeatherTracker,2013-01-22 05:00:00,
2013-01-22 00:05:00,24.0,21.5,29.72,NNW,344,0.0,0.0,90,0.00,,,0.00,WeatherTracker,2013-01-22 05:05:00,
2013-01-22 00:10:00,24.0,21.5,29.72,NNW,345,0.0,0.0,90,0.00,,,0.00,WeatherTracker,2013-01-22 05:10:00,
2013-01-22 00:15:00,24.1,21.6,29.72,NNW,345,0.0,0.0,90,0.00,,,0.00,WeatherTracker,2013-01-22 05:15:00,
2013-01-22 00:20:00,24.2,21.4,29.71,NNW,345,0.0,0.0,89,0.00,,,0.00,WeatherTracker,2013-01-22 05:20:00,
2013-01-22 00:26:00,24.1,21.3,29.70,NNW,345,0.0,0.0,89,0.00,,,0.00,WeatherTracker,2013-01-22 05:26:00,
2013-01-22 00:31:00,24.1,21.3,29.70,NNW,345,0.0,0.0,89,0.00,,,0.00,WeatherTracker,2013-01-22 05:31:00,
2013-01-22 00:36:00,24.2,21.4,29.70,NNW,345,0.0,0.0,89,0.00,,,0.00,WeatherTracker,2013-01-22 05:36:00,
2013-01-22 00:41:00,24.2,21.4,29.69,NNW,345,0.0,0.0,89,0.00,,,0.00,WeatherTracker,2013-01-22 05:41:00,
2013-01-22 00:46:00,24.2,21.4,29.70,NNW,345,0.0,0.0,89,0.00,,,0.00,WeatherTracker,2013-01-22 05:46:00,
2013-01-22 00:51:00,24.1,21.3,29.70,NNW,345,0.0,0.0,89,0.00,,,0.00,WeatherTracker,2013-01-22 05:51:00,
2013-01-22 00:56:00,24.1,21.3,29.69,NNW,345,0.0,0.0,89,0.00,,,0.00,WeatherTracker,2013-01-22 05:56:00,
2013-01-22 01:01:00,24.1,21.3,29.69,NNW,345,0.0,0.0,89,0.00,,,0.00,WeatherTracker,2013-01-22 06:01:00,
2013-01-22 01:06:00,24.0,21.2,29.69,NNW,345,0.0,0.0,89,0.00,,,0.00,WeatherTracker,2013-01-22 06:06:00,
2013-01-22 01:11:00,24.0,21.0,29.70,NNW,345,0.0,0.0,88,0.00,,,0.00,WeatherTracker,2013-01-22 06:11:00,
2013-01-22 01:16:00,23.9,20.9,29.71,NNW,345,0.0,0.0,88,0.00,,,0.00,WeatherTracker,2013-01-22 06:16:00,
2013-01-22 01:21:00,23.9,20.9,29.71,NNW,345,0.0,0.0,88,0.00,,,0.00,WeatherTracker,2013-01-22 06:21:00,
2013-01-22 01:26:00,23.9,20.9,29.71,NNW,345,0.0,0.0,88,0.00,,,0.00,WeatherTracker,2013-01-22 06:26:00,
2013-01-22 01:31:00,23.9,20.9,29.71,West,267,1.0,0.0,88,0.00,,,0.00,WeatherTracker,2013-01-22 06:31:00,
2013-01-22 01:36:00,23.8,20.5,29.71,West,267,0.0,0.0,87,0.00,,,0.00,WeatherTracker,2013-01-22 06:36:00,
2013-01-22 01:41:00,23.7,20.4,29.71,WSW,240,0.0,0.0,87,0.00,,,0.00,WeatherTracker,2013-01-22 06:41:00,
2013-01-22 01:46:00,23.6,20.3,29.71,WSW,240,0.0,0.0,87,0.00,,,0.00,WeatherTracker,2013-01-22 06:46:00,
2013-01-22 01:51:00,23.6,20.0,29.71,WSW,240,2.0,0.0,86,0.00,,,0.00,WeatherTracker,2013-01-22 06:51:00,
2013-01-22 01:56:00,23.6,20.3,29.70,WSW,240,0.0,0.0,87,0.00,,,0.00,WeatherTracker,2013-01-22 06:56:00,
2013-01-22 02:01:00,23.6,20.3,29.71,WSW,240,0.0,0.0,87,0.00,,,0.00,WeatherTracker,2013-01-22 07:01:00,
2013-01-22 02:06:00,23.6,20.0,29.71,WSW,244,0.0,0.0,86,0.00,,,0.00,WeatherTracker,2013-01-22 07:06:00,
2013-01-22 02:11:00,23.6,20.0,29.71,WSW,241,2.0,0.0,86,0.00,,,0.00,WeatherTracker,2013-01-22 07:11:00,
2013-01-22 02:16:00,23.5,19.9,29.71,WSW,248,0.0,0.0,86,0.00,,,0.00,WeatherTracker,2013-01-22 07:16:00,
2013-01-22 02:21:00,23.5,20.2,29.71,WSW,248,0.0,0.0,87,0.00,,,0.00,WeatherTracker,2013-01-22 07:21:00,
2013-01-22 02:26:00,23.6,20.0,29.71,WSW,248,0.0,0.0,86,0.00,,,0.00,WeatherTracker,2013-01-22 07:26:00,
2013-01-22 02:31:00,23.6,20.0,29.71,WSW,242,0.0,0.0,86,0.00,,,0.00,WeatherTracker,2013-01-22 07:31:00,
2013-01-22 02:36:00,23.5,19.9,29.71,SW,227,0.0,0.0,86,0.00,,,0.00,WeatherTracker,2013-01-22 07:36:00,
2013-01-22 02:41:00,23.5,19.9,29.71,West,263,0.0,0.0,86,0.00,,,0.00,WeatherTracker,2013-01-22 07:41:00,
2013-01-22 02:46:00,23.5,19.9,29.71,West,264,0.0,0.0,86,0.00,,,0.00,WeatherTracker,2013-01-22 07:46:00,
2013-01-22 02:51:00,23.4,19.6,29.70,West,275,0.0,0.0,85,0.00,,,0.00,WeatherTracker,2013-01-22 07:51:00,
2013-01-22 02:56:00,23.4,19.6,29.70,West,275,0.0,0.0,85,0.00,,,0.00,WeatherTracker,2013-01-22 07:56:00,
2013-01-22 03:01:00,23.4,19.8,29.70,West,269,0.0,0.0,86,0.00,,,0.00,WeatherTracker,2013-01-22 08:01:00,
2013-01-22 03:07:00,23.3,19.7,29.70,WSW,258,0.0,0.0,86,0.00,,,0.00,WeatherTracker,2013-01-22 08:07:00,
2013-01-22 03:12:00,23.3,20.0,29.70,WSW,258,0.0,0.0,87,0.00,,,0.00,WeatherTracker,2013-01-22 08:12:00,
2013-01-22 03:17:00,23.2,19.6,29.70,WSW,257,0.0,0.0,86,0.00,,,0.00,WeatherTracker,2013-01-22 08:17:00,
2013-01-22 03:22:00,23.0,19.4,29.69,WSW,250,0.0,0.0,86,0.00,,,0.00,WeatherTracker,2013-01-22 08:22:00,
2013-01-22 03:27:00,22.8,19.3,29.69,WSW,250,0.0,0.0,86,0.00,,,0.00,WeatherTracker,2013-01-22 08:27:00,
2013-01-22 03:32:00,22.6,19.1,29.69,WSW,242,0.0,0.0,86,0.00,,,0.00,WeatherTracker,2013-01-22 08:32:00,
2013-01-22 03:37:00,22.3,18.8,29.69,WSW,240,0.0,0.0,86,0.00,,,0.00,WeatherTracker,2013-01-22 08:37:00,
2013-01-22 03:42:00,22.1,18.8,29.69,WSW,240,0.0,0.0,87,0.00,,,0.00,WeatherTracker,2013-01-22 08:42:00,
2013-01-22 03:47:00,21.9,18.6,29.69,WSW,240,0.0,0.0,87,0.00,,,0.00,WeatherTracker,2013-01-22 08:47:00,
2013-01-22 03:52:00,21.7,18.4,29.69,WSW,240,0.0,0.0,87,0.00,,,0.00,WeatherTracker,2013-01-22 08:52:00,
2013-01-22 03:57:00,21.5,18.2,29.69,WSW,240,0.0,0.0,87,0.00,,,0.00,WeatherTracker,2013-01-22 08:57:00,
2013-01-22 04:02:00,21.4,18.4,29.70,WSW,240,0.0,0.0,88,0.00,,,0.00,WeatherTracker,2013-01-22 09:02:00,
2013-01-22 04:07:00,21.2,18.2,29.69,WSW,240,0.0,0.0,88,0.00,,,0.00,WeatherTracker,2013-01-22 09:07:00,
2013-01-22 04:12:00,21.0,18.0,29.69,WSW,240,0.0,0.0,88,0.00,,,0.00,WeatherTracker,2013-01-22 09:12:00,
2013-01-22 04:17:00,20.9,18.2,29.69,WSW,240,0.0,0.0,89,0.00,,,0.00,WeatherTracker,2013-01-22 09:17:00,
2013-01-22 04:22:00,20.7,18.0,29.69,WSW,240,0.0,0.0,89,0.00,,,0.00,WeatherTracker,2013-01-22 09:22:00,
2013-01-22 04:27:00,20.6,17.9,29.70,WSW,240,0.0,0.0,89,0.00,,,0.00,WeatherTracker,2013-01-22 09:27:00,
2013-01-22 04:32:00,20.5,18.0,29.70,WSW,240,0.0,0.0,90,0.00,,,0.00,WeatherTracker,2013-01-22 09:32:00,
2013-01-22 04:37:00,20.4,17.9,29.69,WSW,240,0.0,0.0,90,0.00,,,0.00,WeatherTracker,2013-01-22 09:37:00,
2013-01-22 04:42:00,20.3,17.8,29.70,WSW,240,0.0,0.0,90,0.00,,,0.00,WeatherTracker,2013-01-22 09:42:00,
2013-01-22 04:47:00,20.2,17.7,29.70,WSW,240,0.0,0.0,90,0.00,,,0.00,WeatherTracker,2013-01-22 09:47:00,
2013-01-22 04:52:00,20.3,17.8,29.70,SW,236,0.0,0.0,90,0.00,,,0.00,WeatherTracker,2013-01-22 09:52:00,
2013-01-22 04:57:00,20.3,17.8,29.70,SW,236,0.0,0.0,90,0.00,,,0.00,WeatherTracker,2013-01-22 09:57:00,
2013-01-22 05:02:00,20.3,17.8,29.70,SW,236,0.0,0.0,90,0.00,,,0.00,WeatherTracker,2013-01-22 10:02:00,
2013-01-22 05:07:00,20.4,18.2,29.70,SSW,210,0.0,0.0,91,0.00,,,0.00,WeatherTracker,2013-01-22 10:07:00,
2013-01-22 05:12:00,20.5,18.3,29.70,SSW,210,0.0,0.0,91,0.00,,,0.00,WeatherTracker,2013-01-22 10:12:00,
2013-01-22 05:17:00,20.4,17.9,29.70,WSW,242,1.0,0.0,90,0.00,,,0.00,WeatherTracker,2013-01-22 10:17:00,
2013-01-22 05:23:00,20.5,18.3,29.71,SW,231,0.0,0.0,91,0.00,,,0.00,WeatherTracker,2013-01-22 10:23:00,
2013-01-22 05:28:00,20.6,18.4,29.71,SW,231,0.0,0.0,91,0.00,,,0.00,WeatherTracker,2013-01-22 10:28:00,
2013-01-22 05:33:00,20.7,18.5,29.71,WSW,252,0.0,0.0,91,0.00,,,0.00,WeatherTracker,2013-01-22 10:33:00,
2013-01-22 05:38:00,20.8,18.6,29.71,WSW,252,0.0,0.0,91,0.00,,,0.00,WeatherTracker,2013-01-22 10:38:00,
2013-01-22 05:43:00,20.9,18.7,29.71,WSW,252,0.0,0.0,91,0.00,,,0.00,WeatherTracker,2013-01-22 10:43:00,
2013-01-22 05:48:00,20.9,18.7,29.72,WSW,247,0.0,0.0,91,0.00,,,0.00,WeatherTracker,2013-01-22 10:48:00,
2013-01-22 05:53:00,20.9,18.4,29.72,NW,324,0.0,0.0,90,0.00,,,0.00,WeatherTracker,2013-01-22 10:53:00,
2013-01-22 05:58:00,20.9,18.4,29.72,SW,227,1.0,0.0,90,0.00,,,0.00,WeatherTracker,2013-01-22 10:58:00,
2013-01-22 06:03:00,20.8,18.3,29.72,WSW,240,0.0,0.0,90,0.00,,,0.00,WeatherTracker,2013-01-22 11:03:00,
2013-01-22 06:08:00,20.7,18.2,29.72,SSW,207,0.0,0.0,90,0.00,,,0.00,WeatherTracker,2013-01-22 11:08:00,
2013-01-22 06:13:00,20.5,18.0,29.72,SSW,207,0.0,0.0,90,0.00,,,0.00,WeatherTracker,2013-01-22 11:13:00,
2013-01-22 06:18:00,20.4,17.9,29.73,WSW,254,0.0,0.0,90,0.00,,,0.00,WeatherTracker,2013-01-22 11:18:00,
2013-01-22 06:23:00,20.3,17.6,29.73,WSW,254,0.0,0.0,89,0.00,,,0.00,WeatherTracker,2013-01-22 11:23:00,
2013-01-22 06:28:00,20.1,17.4,29.73,West,278,1.0,0.0,89,0.00,,,0.00,WeatherTracker,2013-01-22 11:28:00,
2013-01-22 06:33:00,20.0,17.3,29.73,WSW,258,0.0,0.0,89,0.00,,,0.00,WeatherTracker,2013-01-22 11:33:00,
2013-01-22 06:38:00,19.9,17.2,29.73,WSW,257,1.0,0.0,89,0.00,,,0.00,WeatherTracker,2013-01-22 11:38:00,
2013-01-22 06:43:00,19.9,16.9,29.73,WSW,239,0.0,0.0,88,0.00,,,0.00,WeatherTracker,2013-01-22 11:43:00,
2013-01-22 06:48:00,19.8,16.8,29.73,SW,231,0.0,0.0,88,0.00,,,0.00,WeatherTracker,2013-01-22 11:48:00,
2013-01-22 06:53:00,19.8,16.6,29.73,WSW,254,2.0,0.0,87,0.00,,,0.00,WeatherTracker,2013-01-22 11:53:00,
2013-01-22 06:58:00,19.8,16.3,29.73,West,271,3.0,0.0,86,0.00,,,0.00,WeatherTracker,2013-01-22 11:58:00,
2013-01-22 07:03:00,19.8,16.0,29.74,West,262,6.0,0.0,85,0.00,,,0.00,WeatherTracker,2013-01-22 12:03:00,
2013-01-22 07:09:00,19.8,16.0,29.74,WNW,292,1.0,0.0,85,0.00,,,0.00,WeatherTracker,2013-01-22 12:09:00,
2013-01-22 07:14:00,19.8,15.5,29.74,WNW,299,1.0,0.0,83,0.00,,,0.00,WeatherTracker,2013-01-22 12:14:00,
2013-01-22 07:19:00,19.9,15.3,29.74,WSW,258,1.0,0.0,82,0.00,,,0.00,WeatherTracker,2013-01-22 12:19:00,
2013-01-22 07:24:00,19.9,15.0,29.75,WSW,253,0.0,0.0,81,0.00,,,0.00,WeatherTracker,2013-01-22 12:24:00,
2013-01-22 07:29:00,20.0,15.1,29.75,SW,220,2.0,0.0,81,0.00,,,0.00,WeatherTracker,2013-01-22 12:29:00,
2013-01-22 07:34:00,20.0,14.8,29.75,West,263,0.0,0.0,80,0.00,,,0.00,WeatherTracker,2013-01-22 12:34:00,
2013-01-22 07:39:00,20.1,14.4,29.75,West,275,1.0,0.0,78,0.00,,,0.00,WeatherTracker,2013-01-22 12:39:00,
2013-01-22 07:44:00,20.2,14.5,29.75,South,172,1.0,0.0,78,0.00,,,0.00,WeatherTracker,2013-01-22 12:44:00,
2013-01-22 07:49:00,20.2,14.2,29.75,West,275,1.0,0.0,77,0.00,,,0.00,WeatherTracker,2013-01-22 12:49:00,
2013-01-22 07:54:00,20.3,13.7,29.76,South,174,2.0,0.0,75,0.00,,,0.00,WeatherTracker,2013-01-22 12:54:00,
2013-01-22 07:59:00,20.3,13.4,29.75,West,273,3.0,0.0,74,0.00,,,0.00,WeatherTracker,2013-01-22 12:59:00,
2013-01-22 08:04:00,20.4,13.5,29.76,West,264,3.0,0.0,74,0.00,,,0.00,WeatherTracker,2013-01-22 13:04:00,
2013-01-22 08:09:00,20.4,13.5,29.76,West,271,0.0,0.0,74,0.00,,,0.00,WeatherTracker,2013-01-22 13:09:00,
2013-01-22 08:14:00,20.5,12.9,29.76,West,274,3.0,0.0,72,0.00,,,0.00,WeatherTracker,2013-01-22 13:14:00,
2013-01-22 08:19:00,20.4,12.8,29.76,West,268,3.0,0.0,72,0.00,,,0.00,WeatherTracker,2013-01-22 13:19:00,
2013-01-22 08:24:00,20.5,13.2,29.77,West,263,1.0,0.0,73,0.00,,,0.00,WeatherTracker,2013-01-22 13:24:00,
2013-01-22 08:29:00,20.6,13.0,29.77,SSW,211,2.0,0.0,72,0.00,,,0.00,WeatherTracker,2013-01-22 13:29:00,
2013-01-22 08:34:00,20.6,12.7,29.77,NW,304,4.0,0.0,71,0.00,,,0.00,WeatherTracker,2013-01-22 13:34:00,
2013-01-22 08:39:00,20.7,12.8,29.77,SSW,202,3.0,0.0,71,0.00,,,0.00,WeatherTracker,2013-01-22 13:39:00,
2013-01-22 08:44:00,20.7,12.5,29.77,West,263,2.0,0.0,70,0.00,,,0.00,WeatherTracker,2013-01-22 13:44:00,
2013-01-22 08:49:00,20.8,12.3,29.77,WSW,255,1.0,0.0,69,0.00,,,0.00,WeatherTracker,2013-01-22 13:49:00,
2013-01-22 08:54:00,20.8,11.9,29.78,SSE,153,5.0,0.0,68,0.00,,,0.00,WeatherTracker,2013-01-22 13:54:00,
2013-01-22 08:59:00,20.9,12.0,29.78,WNW,288,1.0,0.0,68,0.00,,,0.00,WeatherTracker,2013-01-22 13:59:00,
2013-01-22 09:05:00,21.0,11.8,29.78,WNW,286,5.0,0.0,67,0.00,,,0.00,WeatherTracker,2013-01-22 14:05:00,
2013-01-22 09:10:00,21.3,12.7,29.78,West,276,2.0,0.0,69,0.00,,,0.00,WeatherTracker,2013-01-22 14:10:00,
2013-01-22 09:15:00,21.6,12.4,29.79,West,266,2.0,0.0,67,0.00,,,0.00,WeatherTracker,2013-01-22 14:15:00,
2013-01-22 09:20:00,21.7,12.1,29.79,West,274,3.0,0.0,66,0.00,,,0.00,WeatherTracker,2013-01-22 14:20:00,
2013-01-22 09:25:00,21.7,11.8,29.79,NW,317,0.0,0.0,65,0.00,,,0.00,WeatherTracker,2013-01-22 14:25:00,
2013-01-22 09:30:00,21.8,11.5,29.79,SW,231,0.0,0.0,64,0.00,,,0.00,WeatherTracker,2013-01-22 14:30:00,
2013-01-22 09:35:00,21.9,11.6,29.79,West,265,0.0,0.0,64,0.00,,,0.00,WeatherTracker,2013-01-22 14:35:00,
2013-01-22 09:40:00,22.0,11.4,29.79,West,279,3.0,0.0,63,0.00,,,0.00,WeatherTracker,2013-01-22 14:40:00,
2013-01-22 09:45:00,22.0,11.0,29.79,WNW,287,0.0,0.0,62,0.00,,,0.00,WeatherTracker,2013-01-22 14:45:00,
2013-01-22 09:50:00,22.3,10.9,29.80,West,267,3.0,0.0,61,0.00,,,0.00,WeatherTracker,2013-01-22 14:50:00,
2013-01-22 09:55:00,22.3,11.6,29.80,WNW,293,2.0,0.0,63,0.00,,,0.00,WeatherTracker,2013-01-22 14:55:00,
2013-01-22 10:00:00,22.6,11.2,29.80,WNW,299,5.0,0.0,61,0.00,,,0.00,WeatherTracker,2013-01-22 15:00:00,
2013-01-22 10:05:00,22.7,10.9,29.80,WSW,246,8.0,0.0,60,0.00,,,0.00,WeatherTracker,2013-01-22 15:05:00,
2013-01-22 10:10:00,22.7,10.6,29.80,SSW,192,3.0,0.0,59,0.00,,,0.00,WeatherTracker,2013-01-22 15:10:00,
2013-01-22 10:15:00,22.7,10.2,29.80,West,281,7.0,0.0,58,0.00,,,0.00,WeatherTracker,2013-01-22 15:15:00,
2013-01-22 10:20:00,22.7,10.6,29.80,West,281,4.0,0.0,59,0.00,,,0.00,WeatherTracker,2013-01-22 15:20:00,
2013-01-22 10:25:00,22.7,9.4,29.80,SW,235,2.0,0.0,56,0.00,,,0.00,WeatherTracker,2013-01-22 15:25:00,
2013-01-22 10:30:00,22.7,9.4,29.80,West,279,4.0,0.0,56,0.00,,,0.00,WeatherTracker,2013-01-22 15:30:00,
2013-01-22 10:35:00,22.8,8.7,29.80,WNW,284,1.0,0.0,54,0.00,,,0.00,WeatherTracker,2013-01-22 15:35:00,
2013-01-22 10:40:00,22.9,9.6,29.80,West,264,0.0,0.0,56,0.00,,,0.00,WeatherTracker,2013-01-22 15:40:00,
2013-01-22 10:45:00,23.3,9.6,29.80,WSW,247,3.0,0.0,55,0.00,,,0.00,WeatherTracker,2013-01-22 15:45:00,
2013-01-22 10:50:00,23.4,9.6,29.80,NW,305,1.0,0.0,55,0.00,,,0.00,WeatherTracker,2013-01-22 15:50:00,
2013-01-22 10:55:00,23.5,10.1,29.80,NW,323,5.0,0.0,56,0.00,,,0.00,WeatherTracker,2013-01-22 15:55:00,
2013-01-22 11:00:00,23.5,9.3,29.80,WNW,284,3.0,0.0,54,0.00,,,0.00,WeatherTracker,2013-01-22 16:00:00,
2013-01-22 11:06:00,23.4,8.4,29.80,SW,215,5.0,0.0,52,0.00,,,0.00,WeatherTracker,2013-01-22 16:06:00,
2013-01-22 11:11:00,23.6,9.4,29.80,West,280,2.0,0.0,54,0.00,,,0.00,WeatherTracker,2013-01-22 16:11:00,
2013-01-22 11:16:00,23.4,7.5,29.80,SW,234,2.0,0.0,50,0.00,,,0.00,WeatherTracker,2013-01-22 16:16:00,
2013-01-22 18:31:00,18.5,0.3,29.94,West,271,4.0,0.0,44,0.00,,,0.00,WeatherTracker,2013-01-22 23:31:00,
2013-01-22 18:36:00,18.4,0.6,29.94,West,269,0.0,0.0,45,0.00,,,0.00,WeatherTracker,2013-01-22 23:36:00,
2013-01-22 18:41:00,18.3,0.6,29.94,West,267,4.0,0.0,45,0.00,,,0.00,WeatherTracker,2013-01-22 23:41:00,
2013-01-22 18:46:00,18.2,0.9,29.95,WSW,246,4.0,0.0,46,0.00,,,0.00,WeatherTracker,2013-01-22 23:46:00,
2013-01-22 18:51:00,18.0,0.7,29.95,West,279,2.0,0.0,46,0.00,,,0.00,WeatherTracker,2013-01-22 23:51:00,
2013-01-22 18:57:00,17.9,0.7,29.95,West,277,2.0,0.0,46,0.00,,,0.00,WeatherTracker,2013-01-22 23:57:00,
2013-01-22 19:02:00,17.9,1.1,29.95,West,260,0.0,0.0,47,0.00,,,0.00,WeatherTracker,2013-01-23 00:02:00,
2013-01-22 19:07:00,17.8,1.5,29.95,WSW,238,0.0,0.0,48,0.00,,,0.00,WeatherTracker,2013-01-23 00:07:00,
2013-01-22 19:12:00,17.7,0.9,29.96,WSW,255,4.0,0.0,47,0.00,,,0.00,WeatherTracker,2013-01-23 00:12:00,
2013-01-22 19:17:00,17.6,1.3,29.96,WSW,257,0.0,0.0,48,0.00,,,0.00,WeatherTracker,2013-01-23 00:17:00,
2013-01-22 19:22:00,17.5,1.2,29.96,West,277,0.0,0.0,48,0.00,,,0.00,WeatherTracker,2013-01-23 00:22:00,
2013-01-22 19:27:00,17.4,0.7,29.96,West,279,0.0,0.0,47,0.00,,,0.00,WeatherTracker,2013-01-23 00:27:00,
2013-01-22 19:32:00,17.3,0.1,29.96,West,275,1.0,0.0,46,0.00,,,0.00,WeatherTracker,2013-01-23 00:32:00,
2013-01-22 19:37:00,17.3,0.1,29.96,West,269,0.0,0.0,46,0.00,,,0.00,WeatherTracker,2013-01-23 00:37:00,
2013-01-22 19:42:00,17.3,0.6,29.97,West,267,0.0,0.0,47,0.00,,,0.00,WeatherTracker,2013-01-23 00:42:00,
2013-01-22 19:47:00,17.1,0.4,29.97,WNW,289,2.0,0.0,47,0.00,,,0.00,WeatherTracker,2013-01-23 00:47:00,
2013-01-22 19:52:00,17.1,-0.1,29.97,WNW,302,2.0,0.0,46,0.00,,,0.00,WeatherTracker,2013-01-23 00:52:00,
2013-01-22 19:57:00,17.0,0.3,29.97,WNW,295,1.0,0.0,47,0.00,,,0.00,WeatherTracker,2013-01-23 00:57:00,
2013-01-22 20:02:00,16.9,-0.3,29.97,West,281,5.0,0.0,46,0.00,,,0.00,WeatherTracker,2013-01-23 01:02:00,
2013-01-22 20:07:00,16.8,0.1,29.97,WNW,292,0.0,0.0,47,0.00,,,0.00,WeatherTracker,2013-01-23 01:07:00,
2013-01-22 20:12:00,16.7,0.0,29.97,SSE,167,0.0,0.0,47,0.00,,,0.00,WeatherTracker,2013-01-23 01:12:00,
2013-01-22 20:17:00,16.6,-0.1,29.97,NW,307,1.0,0.0,47,0.00,,,0.00,WeatherTracker,2013-01-23 01:17:00,
2013-01-22 20:22:00,16.6,-0.1,29.97,WSW,251,0.0,0.0,47,0.00,,,0.00,WeatherTracker,2013-01-23 01:22:00,
2013-01-22 20:28:00,16.6,0.4,29.98,West,269,2.0,0.0,48,0.00,,,0.00,WeatherTracker,2013-01-23 01:28:00,
2013-01-22 20:33:00,16.4,0.6,29.98,West,269,0.0,0.0,49,0.00,,,0.00,WeatherTracker,2013-01-23 01:33:00,
2013-01-22 20:38:00,16.4,0.2,29.98,West,269,2.0,0.0,48,0.00,,,0.00,WeatherTracker,2013-01-23 01:38:00,
2013-01-22 20:43:00,16.3,0.1,29.98,SSW,195,0.0,0.0,48,0.00,,,0.00,WeatherTracker,2013-01-23 01:43:00,
2013-01-22 20:48:00,16.2,0.0,29.98,West,271,0.0,0.0,48,0.00,,,0.00,WeatherTracker,2013-01-23 01:48:00,
2013-01-22 20:53:00,16.2,0.4,29.98,West,271,0.0,0.0,49,0.00,,,0.00,WeatherTracker,2013-01-23 01:53:00,
2013-01-22 20:58:00,16.1,0.8,29.98,West,271,1.0,0.0,50,0.00,,,0.00,WeatherTracker,2013-01-23 01:58:00,
2013-01-22 21:03:00,16.0,0.2,29.98,West,271,1.0,0.0,49,0.00,,,0.00,WeatherTracker,2013-01-23 02:03:00,
2013-01-22 21:08:00,15.9,0.2,29.98,WSW,240,3.0,0.0,49,0.00,,,0.00,WeatherTracker,2013-01-23 02:08:00,
2013-01-22 21:13:00,15.9,0.2,29.98,West,271,0.0,0.0,49,0.00,,,0.00,WeatherTracker,2013-01-23 02:13:00,
2013-01-22 21:18:00,15.8,0.1,29.98,West,267,0.0,0.0,49,0.00,,,0.00,WeatherTracker,2013-01-23 02:18:00,
2013-01-22 21:23:00,15.7,0.4,29.99,West,279,0.0,0.0,50,0.00,,,0.00,WeatherTracker,2013-01-23 02:23:00,
2013-01-22 21:28:00,15.6,0.3,29.99,WSW,258,1.0,0.0,50,0.00,,,0.00,WeatherTracker,2013-01-23 02:28:00,
2013-01-22 21:33:00,15.5,0.6,29.99,SW,234,3.0,0.0,51,0.00,,,0.00,WeatherTracker,2013-01-23 02:33:00,
2013-01-22 21:38:00,15.5,1.1,29.99,WSW,254,2.0,0.0,52,0.00,,,0.00,WeatherTracker,2013-01-23 02:38:00,
2013-01-22 21:43:00,15.4,1.0,29.99,West,270,0.0,0.0,52,0.00,,,0.00,WeatherTracker,2013-01-23 02:43:00,
2013-01-22 21:48:00,15.3,0.9,29.99,SW,221,0.0,0.0,52,0.00,,,0.00,WeatherTracker,2013-01-23 02:48:00,
2013-01-22 21:53:00,15.2,0.8,30.00,West,273,0.0,0.0,52,0.00,,,0.00,WeatherTracker,2013-01-23 02:53:00,
2013-01-22 21:58:00,15.2,1.2,30.00,West,279,0.0,0.0,53,0.00,,,0.00,WeatherTracker,2013-01-23 02:58:00,
2013-01-22 22:03:00,15.0,0.6,30.00,West,267,2.0,0.0,52,0.00,,,0.00,WeatherTracker,2013-01-23 03:03:00,
2013-01-22 22:08:00,15.0,1.0,30.00,SW,233,1.0,0.0,53,0.00,,,0.00,WeatherTracker,2013-01-23 03:08:00,
2013-01-22 22:13:00,15.0,1.0,30.00,SW,232,3.0,0.0,53,0.00,,,0.00,WeatherTracker,2013-01-23 03:13:00,
2013-01-22 22:18:00,14.9,1.3,30.00,West,269,5.0,0.0,54,0.00,,,0.00,WeatherTracker,2013-01-23 03:18:00,
2013-01-22 22:24:00,14.9,1.3,30.01,West,263,1.0,0.0,54,0.00,,,0.00,WeatherTracker,2013-01-23 03:24:00,
2013-01-22 22:29:00,14.8,1.2,30.01,West,263,0.0,0.0,54,0.00,,,0.00,WeatherTracker,2013-01-23 03:29:00,
2013-01-22 22:34:00,14.7,1.5,30.01,West,264,0.0,0.0,55,0.00,,,0.00,WeatherTracker,2013-01-23 03:34:00,
2013-01-22 22:39:00,14.6,1.4,30.01,WSW,248,0.0,0.0,55,0.00,,,0.00,WeatherTracker,2013-01-23 03:39:00,
2013-01-22 22:44:00,14.6,1.4,30.02,WSW,242,0.0,0.0,55,0.00,,,0.00,WeatherTracker,2013-01-23 03:44:00,
2013-01-22 22:49:00,14.5,1.7,30.02,WSW,255,0.0,0.0,56,0.00,,,0.00,WeatherTracker,2013-01-23 03:49:00,
2013-01-22 22:54:00,14.5,1.7,30.02,West,263,1.0,0.0,56,0.00,,,0.00,WeatherTracker,2013-01-23 03:54:00,
2013-01-22 22:59:00,14.4,2.0,30.02,West,267,0.0,0.0,57,0.00,,,0.00,WeatherTracker,2013-01-23 03:59:00,
2013-01-22 23:04:00,14.4,2.4,30.01,West,270,1.0,0.0,58,0.00,,,0.00,WeatherTracker,2013-01-23 04:04:00,
2013-01-22 23:09:00,14.3,1.9,30.01,WSW,254,0.0,0.0,57,0.00,,,0.00,WeatherTracker,2013-01-23 04:09:00,
2013-01-22 23:14:00,14.1,2.1,30.02,WNW,290,0.0,0.0,58,0.00,,,0.00,WeatherTracker,2013-01-23 04:14:00,
2013-01-22 23:19:00,14.1,2.4,30.02,WSW,248,4.0,0.0,59,0.00,,,0.00,WeatherTracker,2013-01-23 04:19:00,
2013-01-22 23:24:00,14.1,2.1,30.02,West,262,1.0,0.0,58,0.00,,,0.00,WeatherTracker,2013-01-23 04:24:00,
2013-01-22 23:29:00,14.1,2.4,30.02,West,262,0.0,0.0,59,0.00,,,0.00,WeatherTracker,2013-01-23 04:29:00,
2013-01-22 23:34:00,14.0,2.7,30.02,WSW,251,0.0,0.0,60,0.00,,,0.00,WeatherTracker,2013-01-23 04:34:00,
2013-01-22 23:39:00,13.9,1.9,30.02,WNW,288,0.0,0.0,58,0.00,,,0.00,WeatherTracker,2013-01-23 04:39:00,
2013-01-22 23:44:00,13.7,0.9,30.02,West,267,1.0,0.0,56,0.00,,,0.00,WeatherTracker,2013-01-23 04:44:00,
2013-01-22 23:49:00,13.7,1.3,30.01,NW,313,2.0,0.0,57,0.00,,,0.00,WeatherTracker,2013-01-23 04:49:00,
2013-01-22 23:54:00,13.6,0.5,30.01,West,262,3.0,0.0,55,0.00,,,0.00,WeatherTracker,2013-01-23 04:54:00,
2013-01-22 23:59:00,13.6,0.1,30.01,SW,231,5.0,0.0,54,0.00,,,0.00,WeatherTracker,2013-01-23 04:59:00,